| time (UTC) | temp C | wind direction | speed KPH | gust KPH | rain 1hr cm | rain 24hr cm | rain mn cm | humidity % | barometer mb |
| 20260905235021 | 23 | 355 | 0.0 | 0.0 | 0.00 | 0.03 | 0.03 | 69 | 1010.9 |
| 20260905234518 | 23 | 355 | 0.0 | 0.0 | 0.00 | 0.03 | 0.03 | 68 | 1011.0 |
| 20260905234019 | 23 | 355 | 0.0 | 0.0 | 0.00 | 0.03 | 0.03 | 67 | 1010.9 |
| 20260905233519 | 23 | 355 | 0.0 | 1.6 | 0.00 | 0.03 | 0.03 | 67 | 1010.9 |
| 20260905233020 | 24 | 355 | 0.0 | 1.6 | 0.00 | 0.03 | 0.03 | 67 | 1010.8 |
| 20260905232518 | 24 | 355 | 0.0 | 4.8 | 0.00 | 0.03 | 0.03 | 67 | 1010.9 |
| 20260905232018 | 24 | 354 | 0.0 | 3.2 | 0.00 | 0.03 | 0.03 | 66 | 1010.9 |
| 20260905231517 | 24 | 353 | 0.0 | 4.8 | 0.00 | 0.03 | 0.03 | 65 | 1010.8 |
| 20260905231019 | 25 | 360 | 0.0 | 4.8 | 0.00 | 0.03 | 0.03 | 64 | 1010.8 |
| 20260905230517 | 25 | 360 | 0.0 | 6.4 | 0.00 | 0.03 | 0.03 | 63 | 1010.8 |
| 20260905230030 | 25 | 340 | 1.6 | 6.4 | 0.00 | 0.03 | 0.03 | 63 | 1010.9 |
| 20260905225521 | 25 | 8 | 0.0 | 8.0 | 0.00 | 0.03 | 0.03 | 62 | 1010.9 |
| 20260905225017 | 25 | 346 | 1.6 | 9.7 | 0.00 | 0.03 | 0.03 | 62 | 1010.9 |
| 20260905224520 | 25 | 7 | 4.8 | 9.7 | 0.00 | 0.03 | 0.03 | 60 | 1011.0 |
| 20260905224017 | 25 | 340 | 1.6 | 17.7 | 0.00 | 0.03 | 0.03 | 60 | 1011.0 |
| 20260905223516 | 25 | 347 | 3.2 | 17.7 | 0.00 | 0.03 | 0.03 | 60 | 1010.9 |
| 20260905223018 | 25 | 349 | 3.2 | 12.9 | 0.00 | 0.03 | 0.03 | 59 | 1011.0 |
| 20260905222517 | 25 | 40 | 3.2 | 14.5 | 0.00 | 0.03 | 0.03 | 59 | 1011.1 |
| 20260905222015 | 25 | 20 | 3.2 | 14.5 | 0.00 | 0.03 | 0.03 | 58 | 1010.9 |
| 20260905221615 | 26 | 352 | 1.6 | 12.9 | 0.00 | 0.03 | 0.03 | 58 | 1011.0 |
| 20260905221016 | 26 | 344 | 1.6 | 14.5 | 0.00 | 0.03 | 0.03 | 58 | 1010.9 |
| 20260905220516 | 26 | 323 | 6.4 | 14.5 | 0.00 | 0.03 | 0.03 | 57 | 1010.9 |
| 20260905220016 | 26 | 311 | 3.2 | 12.9 | 0.00 | 0.03 | 0.03 | 57 | 1010.9 |
| 20260905215516 | 26 | 20 | 4.8 | 12.9 | 0.00 | 0.03 | 0.03 | 56 | 1011.0 |
| 20260905215014 | 26 | 316 | 4.8 | 12.9 | 0.00 | 0.03 | 0.03 | 55 | 1010.8 |
| 20260905214515 | 26 | 335 | 1.6 | 12.9 | 0.00 | 0.03 | 0.03 | 56 | 1010.8 |
| 20260905214014 | 26 | 10 | 3.2 | 14.5 | 0.00 | 0.03 | 0.03 | 54 | 1010.7 |
| 20260905213517 | 26 | 17 | 3.2 | 12.9 | 0.00 | 0.03 | 0.03 | 54 | 1010.6 |
| 20260905213014 | 26 | 6 | 4.8 | 19.3 | 0.00 | 0.03 | 0.03 | 53 | 1010.7 |
| 20260905212513 | 26 | 4 | 3.2 | 19.3 | 0.00 | 0.03 | 0.03 | 53 | 1010.7 |
| 20260905212012 | 26 | 358 | 6.4 | 19.3 | 0.00 | 0.03 | 0.03 | 52 | 1010.7 |
| 20260905211529 | 26 | 325 | 4.8 | 19.3 | 0.00 | 0.03 | 0.03 | 51 | 1010.8 |
| 20260905211013 | 26 | 307 | 0.0 | 16.1 | 0.00 | 0.03 | 0.03 | 52 | 1010.6 |
| 20260905210512 | 27 | 349 | 4.8 | 12.9 | 0.00 | 0.03 | 0.03 | 51 | 1010.7 |
| 20260905210012 | 27 | 335 | 0.0 | 19.3 | 0.00 | 0.03 | 0.03 | 52 | 1010.8 |
| 20260905205511 | 26 | 336 | 4.8 | 19.3 | 0.00 | 0.03 | 0.03 | 52 | 1010.7 |
| 20260905205011 | 26 | 329 | 3.2 | 20.9 | 0.00 | 0.03 | 0.03 | 52 | 1010.7 |
| 20260905204510 | 26 | 345 | 4.8 | 20.9 | 0.00 | 0.03 | 0.03 | 54 | 1010.7 |
| 20260905204015 | 27 | 309 | 6.4 | 14.5 | 0.00 | 0.03 | 0.03 | 53 | 1010.7 |
| 20260905203510 | 27 | 329 | 3.2 | 14.5 | 0.00 | 0.03 | 0.03 | 55 | 1010.7 |
| 20260905203009 | 27 | 24 | 3.2 | 8.0 | 0.00 | 0.03 | 0.03 | 58 | 1010.6 |
| 20260905202508 | 26 | 347 | 0.0 | 3.2 | 0.00 | 0.03 | 0.03 | 61 | 1010.7 |
| 20260905202007 | 26 | 271 | 0.0 | 6.4 | 0.00 | 0.03 | 0.03 | 62 | 1010.7 |
| 20260905201505 | 26 | 347 | 3.2 | 6.4 | 0.00 | 0.03 | 0.03 | 61 | 1010.8 |
| 20260905201005 | 26 | 345 | 1.6 | 6.4 | 0.00 | 0.03 | 0.03 | 62 | 1010.7 |
| 20260905200508 | 26 | 2 | 0.0 | 9.7 | 0.00 | 0.03 | 0.03 | 63 | 1010.7 |
| 20260905200008 | 26 | 345 | 1.6 | 9.7 | 0.00 | 0.03 | 0.03 | 61 | 1010.7 |
| 20260905195505 | 26 | 359 | 1.6 | 4.8 | 0.00 | 0.03 | 0.03 | 61 | 1010.6 |
| 20260905195004 | 25 | 182 | 0.0 | 4.8 | 0.00 | 0.03 | 0.03 | 63 | 1010.6 |
| 20260905194504 | 25 | 76 | 0.0 | 3.2 | 0.00 | 0.03 | 0.03 | 63 | 1010.7 |
| 20260905194003 | 25 | 210 | 0.0 | 3.2 | 0.00 | 0.03 | 0.03 | 64 | 1010.5 |
| 20260905193502 | 24 | 207 | 0.0 | 3.2 | 0.00 | 0.03 | 0.03 | 66 | 1010.4 |
| 20260905193002 | 23 | 340 | 0.0 | 3.2 | 0.00 | 0.03 | 0.03 | 66 | 1010.5 |
| 20260905192503 | 23 | 86 | 0.0 | 3.2 | 0.00 | 0.03 | 0.03 | 67 | 1010.4 |
| 20260905192100 | 23 | 18 | 0.0 | 6.4 | 0.00 | 0.03 | 0.03 | 69 | 1010.4 |
| 20260905192000 | 23 | 319 | 0.0 | 6.4 | 0.00 | 0.03 | 0.03 | 70 | 1010.4 |
| 20260905191501 | 23 | 346 | 1.6 | 9.7 | 0.00 | 0.03 | 0.03 | 71 | 1010.4 |
| 20260905191003 | 22 | 84 | 1.6 | 9.7 | 0.00 | 0.03 | 0.03 | 72 | 1010.3 |
| 20260905190501 | 22 | 152 | 0.0 | 3.2 | 0.00 | 0.03 | 0.03 | 76 | 1010.3 |
| 20260905190100 | 22 | 25 | 0.0 | 4.8 | 0.00 | 0.03 | 0.03 | 77 | 1010.2 |
| 20260905185601 | 22 | 12 | 0.0 | 4.8 | 0.00 | 0.03 | 0.03 | 79 | 1010.3 |
| 20260905185059 | 22 | 347 | 3.2 | 4.8 | 0.00 | 0.03 | 0.03 | 77 | 1010.3 |
| 20260905184559 | 22 | 351 | 0.0 | 3.2 | 0.03 | 0.03 | 0.03 | 78 | 1010.4 |
| 20260905184058 | 22 | 358 | 0.0 | 3.2 | 0.03 | 0.03 | 0.03 | 77 | 1010.4 |
| 20260905183558 | 22 | 358 | 0.0 | 3.2 | 0.03 | 0.03 | 0.03 | 78 | 1010.5 |
| 20260905183058 | 21 | 3 | 0.0 | 3.2 | 0.03 | 0.03 | 0.03 | 79 | 1010.6 |
| 20260905182556 | 21 | 134 | 0.0 | 1.6 | 0.03 | 0.03 | 0.03 | 82 | 1010.9 |
| 20260905182055 | 21 | 212 | 0.0 | 1.6 | 0.03 | 0.03 | 0.03 | 83 | 1011.1 |
| 20260905181555 | 20 | 195 | 0.0 | 8.0 | 0.03 | 0.03 | 0.03 | 84 | 1011.2 |
| 20260905181052 | 20 | 179 | 1.6 | 8.0 | 0.03 | 0.03 | 0.03 | 84 | 1011.5 |
| 20260905180553 | 20 | 212 | 1.6 | 6.4 | 0.03 | 0.03 | 0.03 | 84 | 1011.9 |
| 20260905180101 | 20 | 357 | 0.0 | 4.8 | 0.03 | 0.03 | 0.03 | 82 | 1011.7 |
| 20260905175553 | 20 | 357 | 0.0 | 4.8 | 0.03 | 0.03 | 0.03 | 79 | 1011.7 |
| 20260905175052 | 20 | 355 | 0.0 | 3.2 | 0.03 | 0.03 | 0.03 | 79 | 1011.5 |
| 20260905174555 | 21 | 7 | 0.0 | 8.0 | 0.00 | 0.00 | 0.00 | 77 | 1011.6 |
| 20260905174054 | 21 | 333 | 0.0 | 9.7 | 0.00 | 0.00 | 0.00 | 75 | 1012.3 |
| 20260905173551 | 21 | 356 | 1.6 | 11.3 | 0.00 | 0.00 | 0.00 | 72 | 1012.7 |
| 20260905173100 | 22 | 360 | 3.2 | 11.3 | 0.00 | 0.00 | 0.00 | 70 | 1013.0 |
| 20260905172550 | 22 | 350 | 1.6 | 16.1 | 0.00 | 0.00 | 0.00 | 69 | 1012.9 |
| 20260905172050 | 22 | 345 | 4.8 | 16.1 | 0.00 | 0.00 | 0.00 | 68 | 1013.2 |
| 20260905171549 | 23 | 349 | 1.6 | 9.7 | 0.00 | 0.00 | 0.00 | 67 | 1013.3 |
| 20260905171048 | 23 | 7 | 0.0 | 11.3 | 0.00 | 0.00 | 0.00 | 66 | 1013.4 |
| 20260905170549 | 23 | 357 | 0.0 | 25.7 | 0.00 | 0.00 | 0.00 | 67 | 1013.6 |
| 20260905170049 | 23 | 327 | 9.7 | 25.7 | 0.00 | 0.00 | 0.00 | 65 | 1013.6 |
| 20260905165548 | 24 | 337 | 8.0 | 27.4 | 0.00 | 0.00 | 0.00 | 65 | 1013.6 |
| 20260905165052 | 25 | 339 | 12.9 | 40.2 | 0.00 | 0.00 | 0.00 | 66 | 1013.4 |
| 20260905164548 | 25 | 26 | 11.3 | 40.2 | 0.00 | 0.00 | 0.00 | 68 | 1013.3 |
| 20260905164047 | 26 | 315 | 4.8 | 20.9 | 0.00 | 0.00 | 0.00 | 71 | 1013.2 |
| 20260905163550 | 26 | 30 | 9.7 | 20.9 | 0.00 | 0.00 | 0.00 | 69 | 1013.2 |
| 20260905163049 | 26 | 328 | 3.2 | 27.4 | 0.00 | 0.00 | 0.00 | 69 | 1013.3 |
| 20260905162548 | 26 | 317 | 8.0 | 27.4 | 0.00 | 0.00 | 0.00 | 67 | 1013.2 |
| 20260905162046 | 26 | 353 | 8.0 | 24.1 | 0.00 | 0.00 | 0.00 | 66 | 1013.1 |
| 20260905161546 | 27 | 142 | 4.8 | 25.7 | 0.00 | 0.00 | 0.00 | 65 | 1012.9 |
| 20260905161047 | 27 | 356 | 4.8 | 22.5 | 0.00 | 0.00 | 0.00 | 65 | 1012.8 |
| 20260905160546 | 27 | 306 | 4.8 | 22.5 | 0.00 | 0.00 | 0.00 | 64 | 1012.8 |
| 20260905160046 | 27 | 291 | 4.8 | 20.9 | 0.00 | 0.00 | 0.00 | 64 | 1012.7 |
| 20260905155549 | 27 | 338 | 3.2 | 14.5 | 0.00 | 0.00 | 0.00 | 68 | 1012.9 |
| 20260905155046 | 27 | 324 | 4.8 | 14.5 | 0.00 | 0.00 | 0.00 | 68 | 1013.0 |
| 20260905154546 | 26 | 245 | 3.2 | 22.5 | 0.00 | 0.00 | 0.00 | 70 | 1013.1 |
| 20260905154048 | 26 | 339 | 4.8 | 22.5 | 0.00 | 0.00 | 0.00 | 70 | 1013.0 |
| 20260905153545 | 26 | 330 | 8.0 | 20.9 | 0.00 | 0.00 | 0.00 | 68 | 1013.1 |
| 20260905153045 | 26 | 257 | 9.7 | 20.9 | 0.00 | 0.00 | 0.00 | 67 | 1012.9 |
| 20260905152545 | 26 | 331 | 4.8 | 19.3 | 0.00 | 0.00 | 0.00 | 67 | 1013.0 |
| 20260905152044 | 27 | 360 | 4.8 | 22.5 | 0.00 | 0.00 | 0.00 | 67 | 1012.9 |
| 20260905151548 | 26 | 51 | 8.0 | 22.5 | 0.00 | 0.00 | 0.00 | 68 | 1012.9 |
| 20260905151044 | 27 | 336 | 6.4 | 17.7 | 0.00 | 0.00 | 0.00 | 68 | 1012.7 |
| 20260905150544 | 27 | 314 | 4.8 | 17.7 | 0.00 | 0.00 | 0.00 | 69 | 1012.6 |
| 20260905150044 | 26 | 349 | 8.0 | 17.7 | 0.00 | 0.00 | 0.00 | 69 | 1012.6 |
| 20260905145543 | 27 | 12 | 9.7 | 17.7 | 0.00 | 0.00 | 0.00 | 68 | 1012.6 |
| 20260905145042 | 27 | 327 | 6.4 | 12.9 | 0.00 | 0.00 | 0.00 | 68 | 1012.6 |
| 20260905144541 | 27 | 4 | 4.8 | 19.3 | 0.00 | 0.00 | 0.00 | 68 | 1012.6 |
| 20260905144044 | 27 | 333 | 6.4 | 19.3 | 0.00 | 0.00 | 0.00 | 66 | 1012.7 |
| 20260905143544 | 27 | 340 | 0.0 | 8.0 | 0.00 | 0.00 | 0.00 | 69 | 1012.8 |
| 20260905143047 | 27 | 37 | 1.6 | 8.0 | 0.00 | 0.00 | 0.00 | 69 | 1012.7 |
| 20260905142541 | 27 | 300 | 0.0 | 3.2 | 0.00 | 0.00 | 0.00 | 70 | 1012.8 |
| 20260905142038 | 27 | 15 | 0.0 | 4.8 | 0.00 | 0.00 | 0.00 | 72 | 1012.8 |
| 20260905141535 | 27 | 20 | 0.0 | 4.8 | 0.00 | 0.00 | 0.00 | 72 | 1012.9 |
| 20260905141034 | 27 | 350 | 1.6 | 4.8 | 0.00 | 0.00 | 0.00 | 71 | 1012.9 |
| 20260905140534 | 27 | 255 | 0.0 | 1.6 | 0.00 | 0.00 | 0.00 | 74 | 1012.9 |
| 20260905140032 | 26 | 251 | 0.0 | 3.2 | 0.00 | 0.00 | 0.00 | 78 | 1012.8 |
| 20260905135529 | 25 | 335 | 0.0 | 4.8 | 0.00 | 0.00 | 0.00 | 79 | 1012.8 |
| 20260905135033 | 25 | 330 | 1.6 | 4.8 | 0.00 | 0.00 | 0.00 | 80 | 1012.8 |
| 20260905134533 | 25 | 331 | 1.6 | 3.2 | 0.00 | 0.00 | 0.00 | 80 | 1012.8 |
| 20260905134028 | 25 | 341 | 0.0 | 4.8 | 0.00 | 0.00 | 0.00 | 82 | 1012.7 |
| 20260905133523 | 24 | 341 | 1.6 | 4.8 | 0.00 | 0.00 | 0.00 | 83 | 1012.8 |
| 20260905133023 | 23 | 354 | 1.6 | 4.8 | 0.00 | 0.00 | 0.00 | 83 | 1013.0 |
| 20260905132521 | 23 | 354 | 0.0 | 3.2 | 0.00 | 0.00 | 0.00 | 85 | 1013.0 |
| 20260905132022 | 23 | 354 | 1.6 | 3.2 | 0.00 | 0.00 | 0.00 | 87 | 1013.2 |
| 20260905131521 | 22 | 350 | 0.0 | 3.2 | 0.00 | 0.00 | 0.00 | 89 | 1013.3 |
| 20260905131016 | 22 | 349 | 0.0 | 1.6 | 0.00 | 0.00 | 0.00 | 91 | 1013.3 |
| 20260905130515 | 22 | 37 | 0.0 | 0.0 | 0.00 | 0.00 | 0.00 | 94 | 1013.4 |
| 20260905130013 | 21 | 42 | 0.0 | 0.0 | 0.00 | 0.00 | 0.00 | 96 | 1013.6 |
| 20260905125511 | 21 | 42 | 0.0 | 0.0 | 0.00 | 0.00 | 0.00 | 96 | 1013.6 |
| 20260905125011 | 20 | 113 | 0.0 | 0.0 | 0.00 | 0.00 | 0.00 | 96 | 1013.7 |
| 20260905124511 | 20 | 113 | 0.0 | 1.6 | 0.00 | 0.00 | 0.00 | 95 | 1013.6 |
| 20260905124011 | 20 | 113 | 0.0 | 1.6 | 0.00 | 0.00 | 0.00 | 96 | 1013.6 |
| 20260905123507 | 19 | 113 | 0.0 | 0.0 | 0.00 | 0.00 | 0.00 | 95 | 1013.5 |
| 20260905123007 | 19 | 113 | 0.0 | 0.0 | 0.00 | 0.00 | 0.00 | 96 | 1013.6 |
| 20260905122505 | 18 | 113 | 0.0 | 0.0 | 0.00 | 0.00 | 0.00 | 96 | 1013.5 |
| 20260905122003 | 18 | 113 | 0.0 | 0.0 | 0.00 | 0.00 | 0.00 | 96 | 1013.4 |
| 20260905121505 | 18 | 113 | 0.0 | 0.0 | 0.00 | 0.00 | 0.00 | 96 | 1013.5 |
| 20260905121003 | 18 | 113 | 0.0 | 0.0 | 0.00 | 0.00 | 0.00 | 96 | 1013.5 |
| 20260905120502 | 18 | 113 | 0.0 | 0.0 | 0.00 | 0.00 | 0.00 | 96 | 1013.4 |
| 20260905120003 | 17 | 113 | 0.0 | 0.0 | 0.00 | 0.00 | 0.00 | 95 | 1013.5 |
| 20260905115502 | 17 | 113 | 0.0 | 0.0 | 0.00 | 0.00 | 0.00 | 96 | 1013.4 |
| 20260905115005 | 17 | 113 | 0.0 | 0.0 | 0.00 | 0.00 | 0.00 | 96 | 1013.4 |
| 20260905114502 | 17 | 113 | 0.0 | 0.0 | 0.00 | 0.00 | 0.00 | 96 | 1013.4 |
| 20260905114101 | 17 | 113 | 0.0 | 0.0 | 0.00 | 0.00 | 0.00 | 96 | 1013.2 |
| 20260905113600 | 17 | 113 | 0.0 | 0.0 | 0.00 | 0.00 | 0.00 | 96 | 1013.1 |
| 20260905113100 | 17 | 113 | 0.0 | 0.0 | 0.00 | 0.00 | 0.00 | 96 | 1013.1 |
| 20260905112600 | 16 | 113 | 0.0 | 0.0 | 0.00 | 0.00 | 0.00 | 96 | 1013.0 |
| 20260905112100 | 16 | 113 | 0.0 | 0.0 | 0.00 | 0.00 | 0.00 | 96 | 1012.9 |
| 20260905111559 | 16 | 113 | 0.0 | 0.0 | 0.00 | 0.00 | 0.00 | 96 | 1013.0 |
| 20260905111100 | 16 | 113 | 0.0 | 0.0 | 0.00 | 0.00 | 0.00 | 96 | 1013.0 |
| 20260905110558 | 16 | 113 | 0.0 | 0.0 | 0.00 | 0.00 | 0.00 | 96 | 1012.9 |
| 20260905110110 | 16 | 113 | 0.0 | 0.0 | 0.00 | 0.00 | 0.00 | 96 | 1012.9 |
| 20260905105558 | 16 | 113 | 0.0 | 0.0 | 0.00 | 0.00 | 0.00 | 96 | 1012.8 |
| 20260905105058 | 16 | 113 | 0.0 | 0.0 | 0.00 | 0.00 | 0.00 | 96 | 1012.7 |
| 20260905104558 | 16 | 113 | 0.0 | 0.0 | 0.00 | 0.00 | 0.00 | 96 | 1012.7 |
| 20260905104056 | 16 | 113 | 0.0 | 0.0 | 0.00 | 0.00 | 0.00 | 96 | 1012.7 |
| 20260905103559 | 17 | 113 | 0.0 | 0.0 | 0.00 | 0.00 | 0.00 | 96 | 1012.7 |
| 20260905103056 | 17 | 113 | 0.0 | 0.0 | 0.00 | 0.00 | 0.00 | 96 | 1012.8 |
| 20260905102655 | 17 | 113 | 0.0 | 0.0 | 0.00 | 0.00 | 0.00 | 96 | 1012.8 |
| 20260905102056 | 17 | 113 | 0.0 | 0.0 | 0.00 | 0.00 | 0.00 | 96 | 1012.7 |
| 20260905101605 | 17 | 113 | 0.0 | 0.0 | 0.00 | 0.00 | 0.00 | 96 | 1012.6 |
| 20260905101054 | 17 | 113 | 0.0 | 0.0 | 0.00 | 0.00 | 0.00 | 96 | 1012.7 |
| 20260905100554 | 17 | 113 | 0.0 | 0.0 | 0.00 | 0.00 | 0.00 | 96 | 1012.7 |
| 20260905100054 | 17 | 113 | 0.0 | 0.0 | 0.00 | 0.00 | 0.00 | 96 | 1012.6 |
| 20260905095555 | 17 | 113 | 0.0 | 0.0 | 0.00 | 0.00 | 0.00 | 96 | 1012.6 |
| 20260905095054 | 17 | 113 | 0.0 | 0.0 | 0.00 | 0.00 | 0.00 | 96 | 1012.6 |
| 20260905094554 | 17 | 113 | 0.0 | 0.0 | 0.00 | 0.00 | 0.00 | 96 | 1012.5 |
| 20260905094054 | 16 | 113 | 0.0 | 0.0 | 0.00 | 0.00 | 0.00 | 96 | 1012.5 |
| 20260905093553 | 17 | 113 | 0.0 | 0.0 | 0.00 | 0.00 | 0.00 | 96 | 1012.3 |
| 20260905093053 | 17 | 113 | 0.0 | 0.0 | 0.00 | 0.00 | 0.00 | 96 | 1012.3 |
| 20260905092552 | 17 | 113 | 0.0 | 0.0 | 0.00 | 0.00 | 0.00 | 96 | 1012.3 |
| 20260905092052 | 17 | 113 | 0.0 | 0.0 | 0.00 | 0.00 | 0.00 | 96 | 1012.4 |
| 20260905091602 | 17 | 113 | 0.0 | 0.0 | 0.00 | 0.00 | 0.00 | 96 | 1012.4 |
| 20260905091050 | 17 | 113 | 0.0 | 0.0 | 0.00 | 0.00 | 0.00 | 96 | 1012.3 |
| 20260905090550 | 17 | 113 | 0.0 | 0.0 | 0.00 | 0.00 | 0.00 | 96 | 1012.4 |
| 20260905090049 | 17 | 113 | 0.0 | 0.0 | 0.00 | 0.00 | 0.00 | 96 | 1012.5 |
| 20260905085553 | 17 | 113 | 0.0 | 0.0 | 0.00 | 0.00 | 0.00 | 96 | 1012.6 |
| 20260905085050 | 17 | 113 | 0.0 | 0.0 | 0.00 | 0.00 | 0.00 | 96 | 1012.6 |
| 20260905084548 | 17 | 113 | 0.0 | 0.0 | 0.00 | 0.00 | 0.00 | 96 | 1012.6 |
| 20260905084047 | 17 | 113 | 0.0 | 0.0 | 0.00 | 0.00 | 0.00 | 96 | 1012.7 |
| 20260905083547 | 17 | 113 | 0.0 | 0.0 | 0.00 | 0.00 | 0.00 | 96 | 1012.8 |
| 20260905083046 | 17 | 113 | 0.0 | 0.0 | 0.00 | 0.00 | 0.00 | 96 | 1012.7 |
| 20260905082546 | 17 | 113 | 0.0 | 0.0 | 0.00 | 0.00 | 0.00 | 96 | 1012.8 |
| 20260905082045 | 17 | 113 | 0.0 | 0.0 | 0.00 | 0.00 | 0.00 | 96 | 1012.8 |
| 20260905081544 | 17 | 113 | 0.0 | 0.0 | 0.00 | 0.00 | 0.00 | 96 | 1012.8 |
| 20260905081047 | 17 | 113 | 0.0 | 0.0 | 0.00 | 0.00 | 0.00 | 96 | 1013.0 |
| 20260905080542 | 17 | 113 | 0.0 | 0.0 | 0.00 | 0.00 | 0.00 | 96 | 1013.0 |
| 20260905080042 | 17 | 113 | 0.0 | 0.0 | 0.00 | 0.00 | 0.00 | 96 | 1013.0 |
| 20260905075542 | 17 | 113 | 0.0 | 0.0 | 0.00 | 0.00 | 0.00 | 96 | 1013.1 |
| 20260905075042 | 17 | 113 | 0.0 | 0.0 | 0.00 | 0.00 | 0.00 | 96 | 1013.1 |
| 20260905074541 | 17 | 113 | 0.0 | 0.0 | 0.00 | 0.00 | 0.00 | 96 | 1013.2 |
| 20260905074041 | 17 | 113 | 0.0 | 0.0 | 0.00 | 0.00 | 0.00 | 96 | 1013.3 |
| 20260905073543 | 17 | 113 | 0.0 | 0.0 | 0.00 | 0.00 | 0.00 | 96 | 1013.3 |
| 20260905073040 | 17 | 113 | 0.0 | 0.0 | 0.00 | 0.00 | 0.00 | 96 | 1013.4 |
| 20260905072540 | 17 | 113 | 0.0 | 0.0 | 0.00 | 0.00 | 0.00 | 96 | 1013.3 |
| 20260905072039 | 17 | 113 | 0.0 | 0.0 | 0.00 | 0.00 | 0.00 | 96 | 1013.4 |
| 20260905071541 | 17 | 113 | 0.0 | 0.0 | 0.00 | 0.00 | 0.00 | 96 | 1013.4 |
| 20260905071039 | 17 | 113 | 0.0 | 0.0 | 0.00 | 0.00 | 0.00 | 96 | 1013.4 |
| 20260905070538 | 17 | 113 | 0.0 | 0.0 | 0.00 | 0.00 | 0.00 | 96 | 1013.4 |
| 20260905070042 | 17 | 113 | 0.0 | 0.0 | 0.00 | 0.00 | 0.00 | 96 | 1013.5 |
| 20260905065536 | 17 | 113 | 0.0 | 0.0 | 0.00 | 0.00 | 0.00 | 96 | 1013.5 |
| 20260905065038 | 17 | 113 | 0.0 | 0.0 | 0.00 | 0.00 | 0.00 | 96 | 1013.7 |
| 20260905064535 | 17 | 113 | 0.0 | 0.0 | 0.00 | 0.00 | 0.00 | 96 | 1013.7 |
| 20260905064036 | 18 | 113 | 0.0 | 0.0 | 0.00 | 0.00 | 0.00 | 96 | 1013.8 |
| 20260905063535 | 18 | 113 | 0.0 | 0.0 | 0.00 | 0.00 | 0.00 | 96 | 1013.8 |
| 20260905063033 | 18 | 113 | 0.0 | 0.0 | 0.00 | 0.00 | 0.00 | 96 | 1013.9 |
| 20260905062532 | 18 | 113 | 0.0 | 1.6 | 0.00 | 0.00 | 0.00 | 96 | 1014.0 |
| 20260905062031 | 18 | 113 | 0.0 | 1.6 | 0.00 | 0.00 | 0.00 | 96 | 1014.1 |
| 20260905061530 | 18 | 113 | 0.0 | 0.0 | 0.00 | 0.00 | 0.00 | 96 | 1014.3 |
| 20260905061029 | 18 | 113 | 0.0 | 1.6 | 0.00 | 0.00 | 0.00 | 96 | 1014.3 |
| 20260905060528 | 18 | 113 | 0.0 | 1.6 | 0.00 | 0.00 | 0.00 | 96 | 1014.4 |
| 20260905060029 | 18 | 113 | 0.0 | 1.6 | 0.00 | 0.00 | 0.00 | 95 | 1014.4 |
| 20260905055530 | 18 | 121 | 0.0 | 1.6 | 0.00 | 0.00 | 0.00 | 95 | 1014.5 |
| 20260905055028 | 18 | 121 | 0.0 | 0.0 | 0.00 | 0.00 | 0.00 | 95 | 1014.7 |
| 20260905054532 | 18 | 121 | 0.0 | 0.0 | 0.00 | 0.00 | 0.00 | 95 | 1014.8 |
| 20260905054026 | 18 | 121 | 0.0 | 0.0 | 0.00 | 0.00 | 0.00 | 95 | 1014.8 |
| 20260905053526 | 18 | 121 | 0.0 | 0.0 | 0.00 | 0.00 | 0.00 | 95 | 1014.8 |
| 20260905053025 | 18 | 121 | 0.0 | 0.0 | 0.00 | 0.00 | 0.00 | 95 | 1014.9 |
| 20260905052524 | 18 | 121 | 0.0 | 0.0 | 0.00 | 0.00 | 0.00 | 95 | 1015.0 |
| 20260905052024 | 18 | 121 | 0.0 | 0.0 | 0.00 | 0.00 | 0.00 | 95 | 1015.0 |
| 20260905051526 | 18 | 121 | 0.0 | 0.0 | 0.00 | 0.00 | 0.00 | 95 | 1015.0 |
| 20260905051023 | 18 | 121 | 0.0 | 0.0 | 0.00 | 0.00 | 0.00 | 95 | 1015.0 |
| 20260905050524 | 18 | 121 | 0.0 | 0.0 | 0.00 | 0.00 | 0.00 | 95 | 1015.1 |
| 20260905050025 | 18 | 121 | 0.0 | 0.0 | 0.00 | 0.00 | 0.00 | 95 | 1015.1 |
| 20260905045521 | 18 | 121 | 0.0 | 0.0 | 0.00 | 0.00 | 0.00 | 95 | 1015.2 |
| 20260905045025 | 18 | 121 | 0.0 | 0.0 | 0.00 | 0.00 | 0.00 | 95 | 1015.1 |
| 20260905044522 | 18 | 121 | 0.0 | 0.0 | 0.00 | 0.00 | 0.00 | 95 | 1015.0 |
| 20260905044020 | 18 | 121 | 0.0 | 0.0 | 0.00 | 0.00 | 0.00 | 94 | 1015.0 |
| 20260905043520 | 18 | 121 | 0.0 | 0.0 | 0.00 | 0.00 | 0.00 | 94 | 1015.2 |
| 20260905043021 | 18 | 121 | 0.0 | 0.0 | 0.00 | 0.00 | 0.00 | 94 | 1015.2 |
| 20260905042519 | 18 | 121 | 0.0 | 0.0 | 0.00 | 0.00 | 0.00 | 94 | 1015.0 |
| 20260905042019 | 18 | 121 | 0.0 | 0.0 | 0.00 | 0.00 | 0.00 | 94 | 1014.9 |
| 20260905041519 | 18 | 121 | 0.0 | 0.0 | 0.00 | 0.00 | 0.00 | 94 | 1014.9 |
| 20260905041019 | 18 | 121 | 0.0 | 0.0 | 0.00 | 0.00 | 0.00 | 94 | 1015.0 |
| 20260905040519 | 18 | 121 | 0.0 | 0.0 | 0.00 | 0.00 | 0.00 | 93 | 1014.9 |
| 20260905040020 | 18 | 121 | 0.0 | 0.0 | 0.00 | 0.00 | 0.00 | 94 | 1014.9 |
| 20260905035515 | 18 | 121 | 0.0 | 0.0 | 0.00 | 0.00 | 0.00 | 93 | 1014.8 |
| 20260905035013 | 18 | 121 | 0.0 | 1.6 | 0.00 | 0.00 | 0.00 | 94 | 1014.7 |
| 20260905034524 | 18 | 121 | 0.0 | 3.2 | 0.00 | 0.00 | 0.00 | 94 | 1014.7 |
| 20260905034014 | 18 | 121 | 0.0 | 3.2 | 0.00 | 0.00 | 0.00 | 94 | 1014.5 |
| 20260905033513 | 18 | 148 | 0.0 | 1.6 | 0.00 | 0.00 | 0.00 | 94 | 1014.4 |
| 20260905033013 | 18 | 173 | 0.0 | 0.0 | 0.00 | 0.00 | 0.00 | 94 | 1014.5 |
| 20260905032516 | 18 | 173 | 0.0 | 0.0 | 0.00 | 0.00 | 0.00 | 94 | 1014.4 |
| 20260905032016 | 18 | 173 | 0.0 | 0.0 | 0.00 | 0.00 | 0.00 | 93 | 1014.5 |
| 20260905031513 | 18 | 173 | 0.0 | 1.6 | 0.00 | 0.00 | 0.00 | 93 | 1014.3 |
| 20260905031011 | 18 | 125 | 0.0 | 0.0 | 0.00 | 0.00 | 0.00 | 93 | 1014.3 |
| 20260905030513 | 18 | 125 | 0.0 | 0.0 | 0.00 | 0.00 | 0.00 | 93 | 1014.5 |
| 20260905030012 | 18 | 125 | 0.0 | 0.0 | 0.00 | 0.00 | 0.00 | 93 | 1014.3 |
| 20260905025512 | 18 | 125 | 0.0 | 0.0 | 0.00 | 0.00 | 0.00 | 93 | 1014.3 |
| 20260905025012 | 18 | 125 | 0.0 | 0.0 | 0.00 | 0.00 | 0.00 | 93 | 1014.2 |
| 20260905024515 | 18 | 125 | 0.0 | 0.0 | 0.00 | 0.00 | 0.00 | 92 | 1014.1 |
| 20260905024011 | 18 | 125 | 0.0 | 0.0 | 0.00 | 0.00 | 0.00 | 92 | 1014.0 |
| 20260905023509 | 19 | 125 | 0.0 | 0.0 | 0.00 | 0.00 | 0.00 | 92 | 1013.9 |
| 20260905023012 | 19 | 125 | 0.0 | 0.0 | 0.00 | 0.00 | 0.00 | 92 | 1014.0 |
| 20260905022508 | 19 | 125 | 0.0 | 0.0 | 0.00 | 0.00 | 0.00 | 92 | 1014.2 |
| 20260905022007 | 19 | 125 | 0.0 | 1.6 | 0.00 | 0.00 | 0.00 | 91 | 1014.0 |
| 20260905021506 | 19 | 125 | 0.0 | 1.6 | 0.00 | 0.00 | 0.00 | 91 | 1013.9 |
| 20260905021008 | 19 | 139 | 0.0 | 1.6 | 0.00 | 0.00 | 0.00 | 92 | 1014.0 |
| 20260905020508 | 19 | 139 | 0.0 | 0.0 | 0.00 | 0.00 | 0.00 | 92 | 1014.0 |
| 20260905020007 | 19 | 139 | 0.0 | 0.0 | 0.00 | 0.00 | 0.00 | 92 | 1014.0 |
| 20260905015506 | 19 | 139 | 0.0 | 1.6 | 0.00 | 0.00 | 0.00 | 92 | 1014.0 |
| 20260905015006 | 20 | 139 | 0.0 | 1.6 | 0.00 | 0.00 | 0.00 | 91 | 1014.2 |
| 20260905014505 | 20 | 139 | 0.0 | 1.6 | 0.00 | 0.00 | 0.00 | 91 | 1014.4 |
| 20260905014005 | 20 | 139 | 0.0 | 0.0 | 0.00 | 0.00 | 0.00 | 91 | 1014.4 |
| 20260905013505 | 20 | 139 | 0.0 | 0.0 | 0.00 | 0.00 | 0.00 | 90 | 1014.5 |
| 20260905013005 | 20 | 139 | 0.0 | 1.6 | 0.00 | 0.00 | 0.00 | 90 | 1014.5 |
| 20260905012505 | 20 | 139 | 0.0 | 0.0 | 0.00 | 0.00 | 0.00 | 90 | 1014.3 |
| 20260905012005 | 20 | 139 | 0.0 | 0.0 | 0.00 | 0.00 | 0.00 | 90 | 1014.2 |
| 20260905011505 | 20 | 139 | 0.0 | 0.0 | 0.00 | 0.00 | 0.00 | 89 | 1014.2 |
| 20260905011006 | 20 | 139 | 0.0 | 0.0 | 0.00 | 0.00 | 0.00 | 89 | 1014.3 |
| 20260905010504 | 20 | 139 | 0.0 | 1.6 | 0.00 | 0.00 | 0.00 | 88 | 1014.3 |
| 20260905010004 | 20 | 139 | 0.0 | 1.6 | 0.00 | 0.00 | 0.00 | 88 | 1014.4 |
| 20260905005503 | 20 | 139 | 0.0 | 0.0 | 0.00 | 0.00 | 0.00 | 88 | 1014.4 |
| 20260905005003 | 21 | 139 | 0.0 | 1.6 | 0.00 | 0.00 | 0.00 | 88 | 1014.5 |
| 20260905004503 | 21 | 139 | 0.0 | 1.6 | 0.00 | 0.00 | 0.00 | 87 | 1014.4 |
| 20260905004003 | 21 | 213 | 0.0 | 0.0 | 0.00 | 0.00 | 0.00 | 86 | 1014.5 |
| 20260905003503 | 21 | 213 | 0.0 | 0.0 | 0.00 | 0.00 | 0.00 | 86 | 1014.6 |
| 20260905003006 | 21 | 213 | 0.0 | 0.0 | 0.00 | 0.00 | 0.00 | 86 | 1014.5 |
| 20260905002502 | 21 | 213 | 0.0 | 0.0 | 0.00 | 0.00 | 0.00 | 85 | 1014.6 |
| 20260905002003 | 21 | 213 | 0.0 | 0.0 | 0.00 | 0.00 | 0.00 | 85 | 1014.5 |
| 20260905001502 | 22 | 213 | 0.0 | 0.0 | 0.00 | 0.00 | 0.00 | 84 | 1014.5 |
| 20260905001002 | 22 | 213 | 0.0 | 0.0 | 0.00 | 0.00 | 0.00 | 83 | 1014.4 |
| 20260905000602 | 22 | 213 | 0.0 | 0.0 | 0.00 | 0.00 | 0.00 | 83 | 1014.2 |
| 20260905000502 | 22 | 213 | 0.0 | 0.0 | 0.00 | 0.00 | 0.00 | 83 | 1014.2 |
| 20260905000001 | 22 | 213 | 0.0 | 1.6 | 0.00 | 0.00 | 0.00 | 82 | 1014.1 |
| 20260904235501 | 22 | 230 | 0.0 | 4.8 | 0.00 | 0.00 | 0.00 | 82 | 1014.3 |